Location: Antichan
(42.9728°N, 0.6667°E)
Time: 14:06:15
(UTC+00:00)

Cosmos 1703 Rocket - Pass Details

Date: 15 August 2020
Orbit: 605 x 634 km, 82.5° (Epoch: 24 September)

Event Time Altitude Azimuth Distance (km) Brightness Sun altitude
Rises 21:04:51 0° 351° (N) 2,877 7.8 -20.4°
Reaches altitude 10° 21:07:05 10° 351° (N) 1,966 6.9 -20.7°
Maximum altitude 21:11:26 88° 264° (W) 612 3.4 -21.2°
Enters shadow 21:12:20 56° 176° (S) 721 3.6 -21.4°
